[[{"header":{"parameterUnit":"m.s-1","parameterCategory":1,"la1":30.2991,"la2":30.254,"lo1":-89.0895,"lo2":-89.0444,"dy":0.0017,"dx":0.0017,"nx":28,"ny":28,"refTime":"2024-08-17T09:00:00:Z","depth":0,"parameterNumber":2,"parameterNumberName":"U-component_of_WINDS"},"data":[0,0,0,0,0,0,0,0,0,0,0,0,0,0,0,0,0,0,0,0,0,0,0,0,0,0,0,0,0,0,0,0,0,0,0,0,0,0,0,0,0,0,0,0,0,0,0,0,0,0,0,0,0,0,0,0,0,0,2.5186,2.5187,0,2.5282,2.5284,2.5285,2.5301,2.53,2.5299,2.5298,2.5391,2.5394,2.5397,0,0,0,0,0,0,0,0,0,0,0,0,0,2.5008,2.5011,2.5186,2.5187,2.5188,2.5282,2.5284,2.5285,2.5301,2.53,2.5299,2.5298,2.539,2.5394,2.5398,0,0,0,0,0,0,0,0,0,0,0,0,0,2.5093,2.5012,2.5186,2.5208,2.5211,2.5282,2.5284,2.5285,2.5301,2.53,2.5299,2.5298,2.5389,2.5394,2.5398,2.5452,0,0,2.5413,2.5415,0,0,0,0,0,0,0,0,2.5088,2.5099,2.5203,2.5206,2.521,2.5278,2.5255,2.5341,2.5301,2.5267,2.5298,2.5297,2.5354,2.5362,2.5382,2.5457,2.5461,2.5414,2.5416,2.5419,2.542,0,0,0,0,0,0,0,2.5082,2.5095,2.5224,2.5205,2.5209,2.521,2.5221,2.5271,2.5316,2.5269,2.5271,2.5282,2.5356,2.5378,2.5385,2.5462,2.5413,2.5418,2.5421,2.5423,2.5583,2.5585,0,0,0,0,0,0,2.5073,2.509,2.5221,2.5227,2.5145,2.5215,2.5227,2.5257,2.5315,2.5323,2.5283,2.5283,2.537,2.5379,2.5388,2.5453,2.5418,2.5423,2.5426,2.5582,2.5584,2.5585,0,0,0,0,0,0,2.5069,2.5085,2.5217,2.5159,2.5176,2.5219,2.5254,2.526,2.5282,2.5326,2.5333,2.5298,2.5369,2.5381,2.5436,2.5457,2.5425,2.543,2.558,2.5582,2.5584,2.5586,0,0,0,0,0,0,2.5064,2.5083,2.5106,2.5159,2.5179,2.5265,2.5255,2.5263,2.5291,2.5291,2.5342,2.5349,2.5369,2.5429,2.5441,2.5463,2.5433,2.5579,2.5581,2.5584,2.5584,2.5587,2.5591,0,0,0,0,0,2.5058,2.5101,2.5107,2.5123,2.5209,2.5267,2.5278,2.5302,2.5293,2.5315,2.5342,2.5347,2.5453,2.5434,2.5448,2.5472,2.5577,2.558,2.5583,2.5582,2.5587,2.559,0,0,0,0,0,0,2.5047,2.5109,2.5116,2.5179,2.5218,2.5269,2.5298,2.5306,2.5347,2.5345,2.5372,2.5383,2.5436,2.546,2.5438,2.5526,2.5514,2.552,2.5509,2.5513,2.5516,2.5509,2.5437,0,0,0,0,0,2.5052,2.5097,2.5148,2.5198,2.5217,2.5254,2.528,2.5296,2.5336,2.5352,2.5384,2.5422,2.5463,2.549,2.5531,2.5588,2.5598,2.5611,2.5614,2.5617,2.5621,2.5651,2.5656,2.5595,2.5595,2.5595,0,0,2.5063,2.5102,2.5128,2.5197,2.5229,2.5271,2.5268,2.5313,2.5344,2.5359,2.5412,2.5437,2.548,2.5536,2.5562,2.5558,2.564,2.5621,2.5622,2.5625,2.5654,2.566,2.5665,2.5597,2.5597,2.5597,0,0,2.5104,2.5139,2.5184,2.5217,2.5266,2.529,2.5301,2.5352,2.5369,2.5424,2.5435,2.5472,2.5543,2.5573,2.5598,2.5649,2.5654,2.5662,2.5678,2.5707,2.5712,2.5716,2.5732,2.5738,2.5666,2.5666,2.5666,0,2.511,2.5177,2.5206,2.5251,2.528,2.5297,2.5341,2.537,2.5429,2.5447,2.5442,2.5531,2.5561,2.5623,2.5636,2.5656,2.5667,2.5655,2.5709,2.5714,2.5718,2.5734,2.574,2.5667,2.5667,2.5667,2.5666,0,2.5181,2.5228,2.5258,2.5316,2.5348,2.5393,2.5425,2.5454,2.5467,2.5491,2.5545,2.5583,2.563,2.5647,2.5659,2.571,2.5705,2.5704,2.5692,2.5724,2.5739,2.5746,2.5667,2.5667,2.5667,2.5667,0,0,2.5217,2.5291,2.5302,2.5328,2.5383,2.5418,2.5462,2.5511,2.5534,2.5574,2.561,2.567,2.5669,2.5697,2.5713,2.5738,2.5774,2.5734,2.5735,2.5738,2.583,2.5829,2.5835,2.5779,2.578,2.5781,2.5825,0,2.5263,2.5345,2.5371,2.5438,2.5479,2.5496,2.5534,2.5571,2.5594,2.5631,2.5656,2.5698,2.5695,2.5711,2.5738,2.5764,2.5792,2.5762,2.5809,2.5811,2.5796,2.5844,2.5843,2.5883,2.5832,2.5833,2.5834,0,2.5327,2.537,2.5441,2.5491,2.5509,2.5543,2.5589,2.5625,2.5666,2.5681,2.5712,2.5726,2.577,2.5757,2.5817,2.5795,2.5816,2.5832,2.5835,2.5838,2.5823,2.5846,2.5897,2.5902,2.5844,2.5843,2.5842,0,2.5343,2.5418,2.5471,2.5493,2.5552,2.5575,2.56,2.5641,2.5668,2.5707,2.5724,2.5768,2.5791,2.5824,2.5848,2.5837,2.5905,2.5894,2.5916,2.5916,2.5928,2.5927,2.5981,2.5945,2.5945,2.5945,2.5945,0,2.539,2.5432,2.5478,2.551,2.5558,2.5587,2.5632,2.5658,2.5693,2.5729,2.5745,2.5777,2.5809,2.5844,2.5864,2.5909,2.592,2.5931,2.5936,2.5929,2.5927,2.5942,2.5939,2.5947,2.5946,2.5946,2.5946,0,2.5415,2.5448,2.5506,2.5558,2.5572,2.5604,2.5647,2.5677,2.5702,2.5746,2.5758,2.5795,2.5838,2.5866,2.592,2.5933,2.5982,2.5986,2.5968,2.597,2.599,2.5987,2.6053,2.6062,2.6023,2.6023,2.6023,0,2.5441,2.5475,2.5531,2.5557,2.5583,2.5624,2.5652,2.5682,2.571,2.5759,2.5783,2.5827,2.5864,2.5931,2.5962,2.6003,2.6007,2.6028,2.6013,2.6005,2.6005,2.6002,2.6004,2.6029,2.6029,2.603,2.603,0,2.5485,2.55,2.5541,2.5588,2.5621,2.5659,2.5696,2.5716,2.5752,2.5782,2.5827,2.5856,2.5912,2.5954,2.5998,2.6022,2.6031,2.6035,2.6041,2.6034,2.6021,2.6026,2.5972,2.6032,2.6032,2.6032,2.6032,2.6032,2.551,2.554,2.5584,2.5629,2.5661,2.5695,2.5726,2.5755,2.5794,2.5843,2.5857,2.5903,2.5942,2.6002,2.6027,2.6062,2.6059,2.607,2.6072,2.6074,2.6073,2.6017,2.607,2.607,2.607,2.607,2.607,0,2.5552,2.5582,2.5623,2.5676,2.5711,2.5719,2.5761,2.5788,2.5829,2.5866,2.5902,2.5953,2.5994,2.6029,2.6071,2.6092,2.6097,2.6102,2.61,2.6105,2.6073,2.6062,2.6097,2.6097,2.6097,2.6097,2.6097,2.6097,2.5578,2.5629,2.5649,2.5714,2.5743,2.579,2.5812,2.5843,2.5873,2.5929,2.5964,2.5987,2.6022,2.6067,2.6105,2.6114,2.6128,2.6131,2.614,2.611,2.6107,2.6104,2.6094,2.6134,2.6134,2.6169,2.6169,2.6169]},{"header":{"parameterUnit":"m.s-1","parameterCategory":1,"la1":30.2991,"la2":30.254,"lo1":-89.0895,"lo2":-89.0444,"dy":0.0017,"dx":0.0017,"nx":28,"ny":28,"refTime":"2024-08-17T09:00:00:Z","depth":0,"parameterNumber":3,"parameterNumberName":"V-component_of_WINDS"},"data":[0,0,0,0,0,0,0,0,0,0,0,0,0,0,0,0,0,0,0,0,0,0,0,0,0,0,0,0,0,0,0,0,0,0,0,0,0,0,0,0,0,0,0,0,0,0,0,0,0,0,0,0,0,0,0,0,0,0,3.6936,3.6936,0,3.7008,3.7009,3.701,3.6978,3.6976,3.6974,3.6973,3.7043,3.7047,3.705,0,0,0,0,0,0,0,0,0,0,0,0,0,3.6765,3.6768,3.6936,3.6937,3.6937,3.7008,3.7009,3.701,3.6978,3.6976,3.6974,3.6972,3.7042,3.7046,3.705,0,0,0,0,0,0,0,0,0,0,0,0,0,3.6838,3.6769,3.6935,3.693,3.693,3.7008,3.7009,3.701,3.6979,3.6976,3.6973,3.6971,3.7041,3.7046,3.7051,3.7137,0,0,3.7067,3.7069,0,0,0,0,0,0,0,0,3.6834,3.6845,3.693,3.6931,3.6931,3.6982,3.6975,3.7053,3.6979,3.696,3.6973,3.697,3.7025,3.7031,3.705,3.714,3.7143,3.7068,3.7071,3.7073,3.7075,0,0,0,0,0,0,0,3.6829,3.6841,3.6964,3.6931,3.6932,3.6923,3.693,3.6989,3.7006,3.6962,3.696,3.6969,3.7024,3.7045,3.7052,3.7144,3.7067,3.7072,3.7075,3.7078,3.7307,3.731,0,0,0,0,0,0,3.6825,3.6837,3.6962,3.6966,3.6875,3.6928,3.6936,3.6968,3.7006,3.7009,3.6971,3.6967,3.7038,3.7046,3.7054,3.7157,3.7073,3.7078,3.7081,3.7304,3.7308,3.7311,0,0,0,0,0,0,3.6821,3.6836,3.6959,3.6901,3.6916,3.6934,3.6969,3.6971,3.6992,3.7013,3.7015,3.699,3.7036,3.7047,3.7117,3.7159,3.708,3.7085,3.7301,3.7305,3.7309,3.7362,0,0,0,0,0,0,3.6817,3.6835,3.6869,3.6903,3.692,3.7022,3.6972,3.6974,3.7002,3.6997,3.7031,3.7034,3.7035,3.7109,3.7122,3.7164,3.7089,3.7297,3.7303,3.7308,3.7357,3.7368,3.7378,0,0,0,0,0,3.6811,3.688,3.6871,3.6886,3.6962,3.7024,3.7034,3.7034,3.7005,3.7038,3.7052,3.7033,3.7152,3.7116,3.7131,3.7175,3.7294,3.7301,3.7307,3.7352,3.7366,3.7377,0,0,0,0,0,0,3.685,3.6885,3.6874,3.6957,3.6988,3.7019,3.7061,3.7049,3.7088,3.7082,3.7079,3.7087,3.716,3.7174,3.7134,3.726,3.7218,3.7228,3.7248,3.7261,3.7271,3.7265,3.7094,0,0,0,0,0,3.6868,3.6917,3.6944,3.7015,3.7031,3.7043,3.707,3.7068,3.7099,3.7112,3.713,3.716,3.7204,3.7233,3.7275,3.7359,3.7365,3.7397,3.7407,3.7416,3.7424,3.7468,3.7482,3.7332,3.7332,3.7332,0,0,3.6906,3.6932,3.6962,3.7023,3.7047,3.7096,3.7054,3.7108,3.7144,3.712,3.7187,3.7202,3.7235,3.7312,3.7347,3.7327,3.7467,3.7424,3.743,3.7434,3.7477,3.7491,3.7503,3.7337,3.7336,3.7335,0,0,3.7001,3.7026,3.7087,3.7112,3.7149,3.7157,3.7171,3.7204,3.7213,3.7281,3.7264,3.7306,3.7382,3.7406,3.7428,3.7533,3.7516,3.7546,3.76,3.7643,3.7655,3.7665,3.7702,3.7715,3.7554,3.7554,3.7555,0,3.7044,3.7119,3.7119,3.7175,3.7202,3.7183,3.7244,3.7268,3.7316,3.7334,3.7311,3.7407,3.7428,3.751,3.7535,3.7554,3.757,3.7542,3.7654,3.7664,3.7674,3.7708,3.7722,3.7558,3.7557,3.7557,3.7557,0,3.7168,3.7221,3.7265,3.7314,3.7346,3.7404,3.7412,3.7444,3.7439,3.7449,3.7518,3.7543,3.7589,3.7608,3.7604,3.769,3.7676,3.7654,3.7612,3.7691,3.7724,3.7737,3.7563,3.7561,3.756,3.756,0,0,3.7289,3.7338,3.7355,3.7376,3.7416,3.7455,3.7512,3.7559,3.7585,3.7619,3.7666,3.7731,3.771,3.7736,3.7733,3.7772,3.7852,3.7744,3.7745,3.7763,3.7947,3.7964,3.7979,3.7841,3.7844,3.7846,3.7944,0,3.7387,3.7488,3.749,3.7582,3.763,3.7613,3.7662,3.7691,3.7701,3.7742,3.7753,3.7799,3.7769,3.7784,3.7821,3.7834,3.7889,3.7827,3.7883,3.7885,3.7875,3.7996,3.8014,3.8106,3.7957,3.7959,3.7961,0,3.7513,3.7553,3.765,3.7683,3.7702,3.7747,3.779,3.7829,3.7861,3.7866,3.7895,3.7887,3.7943,3.79,3.7977,3.7935,3.7958,3.7968,3.7971,3.7976,3.7927,3.8003,3.8135,3.8148,3.7981,3.7979,3.7978,0,3.7591,3.7668,3.7736,3.7755,3.7795,3.7827,3.7844,3.7874,3.7902,3.7938,3.7956,3.7999,3.8022,3.8054,3.8057,3.8026,3.8134,3.8091,3.8139,3.8139,3.8162,3.816,3.8298,3.8178,3.8178,3.8177,3.8177,0,3.7699,3.7759,3.7772,3.7814,3.788,3.7881,3.7946,3.7961,3.7988,3.8031,3.8018,3.8059,3.8061,3.8102,3.8105,3.8167,3.8178,3.8182,3.8182,3.8183,3.8183,3.8198,3.8191,3.8181,3.818,3.818,3.8179,0,3.7797,3.7808,3.7881,3.7913,3.7922,3.797,3.7996,3.8036,3.8045,3.81,3.8113,3.8128,3.8176,3.8182,3.8238,3.8239,3.8315,3.8308,3.8304,3.8303,3.835,3.8345,3.8502,3.8522,3.8389,3.8391,3.8392,0,3.7865,3.7911,3.7948,3.7977,3.7997,3.8043,3.8072,3.8075,3.8105,3.8145,3.8179,3.8226,3.8263,3.834,3.8355,3.8397,3.8391,3.8443,3.8397,3.8397,3.8391,3.8388,3.8392,3.8452,3.8453,3.8454,3.8455,0,3.7984,3.7987,3.803,3.8075,3.811,3.8145,3.8177,3.8201,3.8208,3.8243,3.8292,3.8322,3.8379,3.8425,3.8467,3.8483,3.847,3.847,3.8483,3.8484,3.848,3.8482,3.8328,3.8466,3.8465,3.8464,3.8463,3.8463,3.8068,3.8108,3.8141,3.8189,3.8214,3.8245,3.8284,3.8299,3.8341,3.8389,3.8387,3.8442,3.8471,3.8526,3.8546,3.8587,3.857,3.8589,3.8594,3.8598,3.8603,3.8474,3.8595,3.8594,3.8594,3.8594,3.8594,0,3.8186,3.8206,3.8251,3.8298,3.8335,3.8321,3.8357,3.8389,3.8437,3.8467,3.8505,3.8561,3.8606,3.8624,3.8668,3.8697,3.8692,3.8708,3.8706,3.871,3.8616,3.86,3.8712,3.8712,3.8712,3.8712,3.8712,3.8712,3.8252,3.8318,3.8326,3.8404,3.8424,3.8478,3.85,3.8528,3.8552,3.8616,3.8654,3.8666,3.8691,3.8736,3.8776,3.878,3.8796,3.8815,3.8817,3.8728,3.8716,3.8705,3.869,3.8819,3.8819,3.8907,3.8908,3.8909]}]]